Year,Month,Day,Hour,Minute,Value (Times are PST for windspeed in km/hr)
2010,04,02,00,00,23.00
2010,04,02,00,01,22.00
2010,04,02,00,02,17.00
2010,04,02,00,03,17.90
2010,04,02,00,04,22.90
2010,04,02,00,05,19.30
2010,04,02,00,06,19.50
2010,04,02,00,07,21.50
2010,04,02,00,08,24.10
2010,04,02,00,09,25.40
2010,04,02,00,10,21.50
2010,04,02,00,11,18.90
2010,04,02,00,12,18.60
2010,04,02,00,13,13.90
2010,04,02,00,14,16.40
2010,04,02,00,15,16.60
2010,04,02,00,16,18.20
2010,04,02,00,17,19.50
2010,04,02,00,18,19.90
2010,04,02,00,19,19.20
2010,04,02,00,20,26.00
2010,04,02,00,21,19.50
2010,04,02,00,22,17.70
2010,04,02,00,23,17.60
2010,04,02,00,24,11.80
2010,04,02,00,25,18.70
2010,04,02,00,26,19.10
2010,04,02,00,27,26.40
2010,04,02,00,28,24.10
2010,04,02,00,29,22.50
2010,04,02,00,30,17.80
2010,04,02,00,31,19.90
2010,04,02,00,32,21.00
2010,04,02,00,33,26.60
2010,04,02,00,34,17.10
2010,04,02,00,35,17.70
2010,04,02,00,36,21.70
2010,04,02,00,37,20.10
2010,04,02,00,38,21.80
2010,04,02,00,39,26.10
2010,04,02,00,40,18.90
2010,04,02,00,41,21.10
2010,04,02,00,42,22.20
2010,04,02,00,43,18.50
2010,04,02,00,44,17.80
2010,04,02,00,45,21.30
2010,04,02,00,46,20.50
2010,04,02,00,47,23.00
2010,04,02,00,48,19.80
2010,04,02,00,49,25.20
2010,04,02,00,50,21.90
2010,04,02,00,51,17.20
2010,04,02,00,52,26.20
2010,04,02,00,53,22.20
2010,04,02,00,54,21.90
2010,04,02,00,55,22.20
2010,04,02,00,56,18.90
2010,04,02,00,57,20.90
2010,04,02,00,58,22.00
2010,04,02,00,59,26.80
2010,04,02,01,00,24.50
2010,04,02,01,01,23.30
2010,04,02,01,02,25.00
2010,04,02,01,03,22.90
2010,04,02,01,04,20.50
2010,04,02,01,05,24.40
2010,04,02,01,06,18.00
2010,04,02,01,07,21.60
2010,04,02,01,08,20.00
2010,04,02,01,09,22.50
2010,04,02,01,10,26.00
2010,04,02,01,11,23.80
2010,04,02,01,12,17.50
2010,04,02,01,13,22.20
2010,04,02,01,14,21.40
2010,04,02,01,15,21.70
2010,04,02,01,16,18.70
2010,04,02,01,17,20.00
2010,04,02,01,18,26.20
2010,04,02,01,19,20.10
2010,04,02,01,20,15.00
2010,04,02,01,21,19.60
2010,04,02,01,22,25.70
2010,04,02,01,23,21.00
2010,04,02,01,24,19.50
2010,04,02,01,25,22.10
2010,04,02,01,26,22.00
2010,04,02,01,27,15.60
2010,04,02,01,28,26.10
2010,04,02,01,29,26.00
2010,04,02,01,30,20.00
2010,04,02,01,31,25.40
2010,04,02,01,32,19.50
2010,04,02,01,33,23.00
2010,04,02,01,34,22.80
2010,04,02,01,35,26.80
2010,04,02,01,36,19.50
2010,04,02,01,37,20.60
2010,04,02,01,38,20.60
2010,04,02,01,39,18.80
2010,04,02,01,40,19.90
2010,04,02,01,41,22.00
2010,04,02,01,42,25.50
2010,04,02,01,43,21.30
2010,04,02,01,44,22.00
2010,04,02,01,45,28.50
2010,04,02,01,46,23.50
2010,04,02,01,47,21.30
2010,04,02,01,48,25.10
2010,04,02,01,49,21.70
2010,04,02,01,50,30.80
2010,04,02,01,51,23.70
2010,04,02,01,52,18.80
2010,04,02,01,53,24.90
2010,04,02,01,54,25.90
2010,04,02,01,55,25.30
2010,04,02,01,56,30.00
2010,04,02,01,57,24.20
2010,04,02,01,58,29.50
2010,04,02,01,59,28.60
2010,04,02,02,00,25.50
2010,04,02,02,01,27.40
2010,04,02,02,02,30.10
2010,04,02,02,03,25.70
2010,04,02,02,04,32.40
2010,04,02,02,05,23.20
2010,04,02,02,06,31.80
2010,04,02,02,07,27.40
2010,04,02,02,08,26.00
2010,04,02,02,09,25.50
2010,04,02,02,10,24.10
2010,04,02,02,11,22.60
2010,04,02,02,12,24.50
2010,04,02,02,13,28.40
2010,04,02,02,14,22.90
2010,04,02,02,15,19.80
2010,04,02,02,16,20.10
2010,04,02,02,17,19.20
2010,04,02,02,18,23.80
2010,04,02,02,19,24.10
2010,04,02,02,20,24.00
2010,04,02,02,21,29.60
2010,04,02,02,22,26.20
2010,04,02,02,23,22.50
2010,04,02,02,24,21.30
2010,04,02,02,25,24.30
2010,04,02,02,26,18.80
2010,04,02,02,27,22.90
2010,04,02,02,28,25.50
2010,04,02,02,29,29.20
2010,04,02,02,30,28.50
2010,04,02,02,31,25.80
2010,04,02,02,32,31.10
2010,04,02,02,33,28.40
2010,04,02,02,34,27.70
2010,04,02,02,35,24.70
2010,04,02,02,36,24.70
2010,04,02,02,37,17.80
2010,04,02,02,38,24.10
2010,04,02,02,39,27.10
2010,04,02,02,40,16.90
2010,04,02,02,41,25.20
2010,04,02,02,42,27.40
2010,04,02,02,43,26.30
2010,04,02,02,44,22.90
2010,04,02,02,45,13.90
2010,04,02,02,46,26.20
2010,04,02,02,47,27.80
2010,04,02,02,48,23.20
2010,04,02,02,49,21.50
2010,04,02,02,50,25.00
2010,04,02,02,51,27.80
2010,04,02,02,52,23.20
2010,04,02,02,53,23.20
2010,04,02,02,54,25.50
2010,04,02,02,55,24.40
2010,04,02,02,56,23.30
2010,04,02,02,57,16.30
2010,04,02,02,58,18.90
2010,04,02,02,59,27.90
2010,04,02,03,00,28.40
2010,04,02,03,01,18.20
2010,04,02,03,02,15.00
2010,04,02,03,03,24.50
2010,04,02,03,04,25.50
2010,04,02,03,05,24.60
2010,04,02,03,06,19.70
2010,04,02,03,07,19.20
2010,04,02,03,08,19.80
2010,04,02,03,09,22.10
2010,04,02,03,10,17.50
2010,04,02,03,11,20.40
2010,04,02,03,12,16.50
2010,04,02,03,13,17.40
2010,04,02,03,14,18.90
2010,04,02,03,15,12.60
2010,04,02,03,16,18.60
2010,04,02,03,17,19.70
2010,04,02,03,18,15.70
2010,04,02,03,19,19.70
2010,04,02,03,20,22.90
2010,04,02,03,21,17.90
2010,04,02,03,22,18.70
2010,04,02,03,23,19.40
2010,04,02,03,24,12.40
2010,04,02,03,25,18.00
2010,04,02,03,26,23.00
2010,04,02,03,27,17.20
2010,04,02,03,28,14.30
2010,04,02,03,29,16.70
2010,04,02,03,30,14.60
2010,04,02,03,31,16.00
2010,04,02,03,32,10.90
2010,04,02,03,33,16.20
2010,04,02,03,34,12.00
2010,04,02,03,35,11.10
2010,04,02,03,36,9.20
2010,04,02,03,37,11.10
2010,04,02,03,38,11.40
2010,04,02,03,39,13.60
2010,04,02,03,40,13.60
2010,04,02,03,41,15.10
2010,04,02,03,42,10.60
2010,04,02,03,43,4.70
2010,04,02,03,44,10.50
2010,04,02,03,45,10.50
2010,04,02,03,46,9.70
2010,04,02,03,47,7.60
2010,04,02,03,48,4.20
2010,04,02,03,49,6.50
2010,04,02,03,50,9.20
2010,04,02,03,51,5.50
2010,04,02,03,52,5.50
2010,04,02,03,53,8.70
2010,04,02,03,54,6.10
2010,04,02,03,55,4.20
2010,04,02,03,56,4.40
2010,04,02,03,57,2.50
2010,04,02,03,58,1.60
2010,04,02,03,59,0.00
2010,04,02,04,00,0.00
2010,04,02,04,01,0.00
2010,04,02,04,02,1.50
2010,04,02,04,03,3.40
2010,04,02,04,04,3.50
2010,04,02,04,05,4.80
2010,04,02,04,06,5.70
2010,04,02,04,07,5.30
2010,04,02,04,08,5.60
2010,04,02,04,09,6.10
2010,04,02,04,10,6.70
2010,04,02,04,11,7.50
2010,04,02,04,12,5.60
2010,04,02,04,13,7.90
2010,04,02,04,14,5.50
2010,04,02,04,15,5.60
2010,04,02,04,16,3.20
2010,04,02,04,17,3.40
2010,04,02,04,18,3.20
2010,04,02,04,19,5.50
2010,04,02,04,20,6.40
2010,04,02,04,21,7.20
2010,04,02,04,22,8.80
2010,04,02,04,23,8.70
2010,04,02,04,24,7.30
2010,04,02,04,25,6.00
2010,04,02,04,26,8.90
2010,04,02,04,27,11.30
2010,04,02,04,28,10.80
2010,04,02,04,29,11.70
2010,04,02,04,30,8.70
2010,04,02,04,31,7.20
2010,04,02,04,32,8.40
2010,04,02,04,33,9.10
2010,04,02,04,34,6.00
2010,04,02,04,35,6.50
2010,04,02,04,36,5.90
2010,04,02,04,37,6.60
2010,04,02,04,38,11.60
2010,04,02,04,39,10.40
2010,04,02,04,40,7.50
2010,04,02,04,41,6.70
2010,04,02,04,42,7.60
2010,04,02,04,43,13.50
2010,04,02,04,44,10.20
2010,04,02,04,45,19.50
2010,04,02,04,46,19.90
2010,04,02,04,47,31.80
2010,04,02,04,48,27.40
2010,04,02,04,49,30.90
2010,04,02,04,50,29.00
2010,04,02,04,51,30.50
2010,04,02,04,52,23.10
2010,04,02,04,53,27.70
2010,04,02,04,54,31.80
2010,04,02,04,55,23.00
2010,04,02,04,56,29.80
2010,04,02,04,57,38.80
2010,04,02,04,58,22.50
2010,04,02,04,59,29.20
2010,04,02,05,00,30.40
2010,04,02,05,01,29.00
2010,04,02,05,02,36.70
2010,04,02,05,03,27.10
2010,04,02,05,04,25.10
2010,04,02,05,05,27.40
2010,04,02,05,06,30.90
2010,04,02,05,07,28.60
2010,04,02,05,08,25.70
2010,04,02,05,09,29.30
2010,04,02,05,10,33.00
2010,04,02,05,11,27.80
2010,04,02,05,12,31.00
2010,04,02,05,13,31.30
2010,04,02,05,14,35.20
2010,04,02,05,15,28.20
2010,04,02,05,16,28.00
2010,04,02,05,17,28.80
2010,04,02,05,18,28.50
2010,04,02,05,19,28.70
2010,04,02,05,20,30.20
2010,04,02,05,21,24.50
2010,04,02,05,22,27.80
2010,04,02,05,23,28.90
2010,04,02,05,24,29.20
2010,04,02,05,25,30.20
2010,04,02,05,26,25.10
2010,04,02,05,27,29.60
2010,04,02,05,28,30.70
2010,04,02,05,29,32.40
2010,04,02,05,30,33.50
2010,04,02,05,31,28.50
2010,04,02,05,32,22.80
2010,04,02,05,33,29.20
2010,04,02,05,34,20.40
2010,04,02,05,35,28.00
2010,04,02,05,36,29.90
2010,04,02,05,37,27.40
2010,04,02,05,38,26.60
2010,04,02,05,39,26.60
2010,04,02,05,40,29.90
2010,04,02,05,41,20.10
2010,04,02,05,42,20.60
2010,04,02,05,43,24.40
2010,04,02,05,44,38.50
2010,04,02,05,45,28.10
2010,04,02,05,46,38.50
2010,04,02,05,47,34.30
2010,04,02,05,48,33.20
2010,04,02,05,49,33.40
2010,04,02,05,50,33.30
2010,04,02,05,51,31.70
2010,04,02,05,52,33.90
2010,04,02,05,53,39.40
2010,04,02,05,54,35.00
2010,04,02,05,55,39.30
2010,04,02,05,56,35.60
2010,04,02,05,57,45.50
2010,04,02,05,58,37.90
2010,04,02,05,59,46.40
2010,04,02,06,00,35.10
2010,04,02,06,01,33.70
2010,04,02,06,02,42.80
2010,04,02,06,03,39.00
2010,04,02,06,04,39.40
2010,04,02,06,05,44.30
2010,04,02,06,06,39.00
2010,04,02,06,07,38.20
2010,04,02,06,08,34.80
2010,04,02,06,09,37.10
2010,04,02,06,10,37.30
2010,04,02,06,11,40.80
2010,04,02,06,12,39.00
2010,04,02,06,13,41.50
2010,04,02,06,14,49.40
2010,04,02,06,15,44.20
2010,04,02,06,16,49.20
2010,04,02,06,17,43.70
2010,04,02,06,18,40.80
2010,04,02,06,19,50.10
2010,04,02,06,20,51.80
2010,04,02,06,21,44.80
2010,04,02,06,22,42.90
2010,04,02,06,23,48.20
2010,04,02,06,24,35.90
2010,04,02,06,25,38.20
2010,04,02,06,26,59.30
2010,04,02,06,27,37.90
2010,04,02,06,28,47.90
2010,04,02,06,29,47.50
2010,04,02,06,30,48.00
2010,04,02,06,31,52.20
2010,04,02,06,32,56.90
2010,04,02,06,33,45.90
2010,04,02,06,34,52.80
2010,04,02,06,35,38.30
2010,04,02,06,36,43.00
2010,04,02,06,37,38.90
2010,04,02,06,38,45.60
2010,04,02,06,39,39.10
2010,04,02,06,40,46.20
2010,04,02,06,41,50.00
2010,04,02,06,42,48.10
2010,04,02,06,43,57.30
2010,04,02,06,44,58.00
2010,04,02,06,45,47.50
2010,04,02,06,46,57.50
2010,04,02,06,47,47.70
2010,04,02,06,48,47.30
2010,04,02,06,49,52.60
2010,04,02,06,50,51.40
2010,04,02,06,51,40.70
2010,04,02,06,52,40.50
2010,04,02,06,53,47.60
2010,04,02,06,54,49.40
2010,04,02,06,55,48.10
2010,04,02,06,56,45.10
2010,04,02,06,57,57.70
2010,04,02,06,58,46.30
2010,04,02,06,59,41.60
2010,04,02,07,00,56.10
2010,04,02,07,01,55.50
2010,04,02,07,02,46.80
2010,04,02,07,03,52.90
2010,04,02,07,04,54.90
2010,04,02,07,05,51.80
2010,04,02,07,06,53.10
2010,04,02,07,07,39.20
2010,04,02,07,08,41.90
2010,04,02,07,09,44.80
2010,04,02,07,10,52.60
2010,04,02,07,11,51.70
2010,04,02,07,12,56.80
2010,04,02,07,13,56.20
2010,04,02,07,14,48.50
2010,04,02,07,15,49.60
2010,04,02,07,16,48.90
2010,04,02,07,17,52.60
2010,04,02,07,18,55.00
2010,04,02,07,19,51.30
2010,04,02,07,20,47.80
2010,04,02,07,21,41.80
2010,04,02,07,22,43.20
2010,04,02,07,23,44.10
2010,04,02,07,24,39.90
2010,04,02,07,25,41.80
2010,04,02,07,26,41.10
2010,04,02,07,27,37.60
2010,04,02,07,28,43.80
2010,04,02,07,29,37.30
2010,04,02,07,30,44.80
2010,04,02,07,31,50.40
2010,04,02,07,32,50.20
2010,04,02,07,33,47.00
2010,04,02,07,34,42.50
2010,04,02,07,35,45.40
2010,04,02,07,36,38.80
2010,04,02,07,37,46.10
2010,04,02,07,38,41.70
2010,04,02,07,39,43.40
2010,04,02,07,40,42.20
2010,04,02,07,41,49.80
2010,04,02,07,42,47.10
2010,04,02,07,43,48.20
2010,04,02,07,44,48.70
2010,04,02,07,45,47.00
2010,04,02,07,46,51.60
2010,04,02,07,47,35.70
2010,04,02,07,48,39.80
2010,04,02,07,49,42.30
2010,04,02,07,50,45.60
2010,04,02,07,51,44.40
2010,04,02,07,52,44.60
2010,04,02,07,53,47.20
2010,04,02,07,54,43.50
2010,04,02,07,55,49.30
2010,04,02,07,56,32.80
2010,04,02,07,57,33.80
2010,04,02,07,58,40.20
2010,04,02,07,59,47.20
2010,04,02,08,00,35.60
2010,04,02,08,01,37.90
2010,04,02,08,02,35.10
2010,04,02,08,03,34.90
2010,04,02,08,04,32.20
2010,04,02,08,05,45.60
2010,04,02,08,06,43.10
2010,04,02,08,07,45.00
2010,04,02,08,08,38.20
2010,04,02,08,09,38.10
2010,04,02,08,10,45.70
2010,04,02,08,11,50.90
2010,04,02,08,12,45.70
2010,04,02,08,13,47.30
2010,04,02,08,14,44.00
2010,04,02,08,15,54.70
2010,04,02,08,16,46.60
2010,04,02,08,17,48.80
2010,04,02,08,18,53.40
2010,04,02,08,19,44.50
2010,04,02,08,20,46.50
2010,04,02,08,21,50.80
2010,04,02,08,22,50.00
2010,04,02,08,23,48.70
2010,04,02,08,24,43.10
2010,04,02,08,25,47.00
2010,04,02,08,26,46.70
2010,04,02,08,27,41.60
2010,04,02,08,28,45.90
2010,04,02,08,29,39.40
2010,04,02,08,30,41.80
2010,04,02,08,31,42.80
2010,04,02,08,32,30.60
2010,04,02,08,33,35.50
2010,04,02,08,34,30.60
2010,04,02,08,35,34.40
2010,04,02,08,36,41.20
2010,04,02,08,37,35.80
2010,04,02,08,38,30.90
2010,04,02,08,39,43.60
2010,04,02,08,40,25.40
2010,04,02,08,41,34.80
2010,04,02,08,42,43.10
2010,04,02,08,43,46.40
2010,04,02,08,44,35.60
2010,04,02,08,45,35.90
2010,04,02,08,46,35.70
2010,04,02,08,47,49.40
2010,04,02,08,48,38.50
2010,04,02,08,49,32.80
2010,04,02,08,50,37.80
2010,04,02,08,51,41.80
2010,04,02,08,52,47.20
2010,04,02,08,53,43.30
2010,04,02,08,54,40.30
2010,04,02,08,55,42.00
2010,04,02,08,56,40.70
2010,04,02,08,57,39.00
2010,04,02,08,58,44.60
2010,04,02,08,59,37.70
2010,04,02,09,00,31.10
2010,04,02,09,01,39.40
2010,04,02,09,02,42.70
2010,04,02,09,03,37.80
2010,04,02,09,04,36.70
2010,04,02,09,05,33.10
2010,04,02,09,06,37.40
2010,04,02,09,07,30.90
2010,04,02,09,08,41.60
2010,04,02,09,09,48.20
2010,04,02,09,10,41.60
2010,04,02,09,11,38.00
2010,04,02,09,12,43.60
2010,04,02,09,13,34.80
2010,04,02,09,14,39.60
2010,04,02,09,15,35.00
2010,04,02,09,16,31.10
2010,04,02,09,17,46.80
2010,04,02,09,18,39.60
2010,04,02,09,19,34.80
2010,04,02,09,20,37.30
2010,04,02,09,21,45.80
2010,04,02,09,22,40.10
2010,04,02,09,23,36.20
2010,04,02,09,24,34.70
2010,04,02,09,25,40.70
2010,04,02,09,26,37.80
2010,04,02,09,27,39.10
2010,04,02,09,28,39.80
2010,04,02,09,29,34.20
2010,04,02,09,30,34.20
2010,04,02,09,31,48.00
2010,04,02,09,32,50.70
2010,04,02,09,33,43.30
2010,04,02,09,34,26.80
2010,04,02,09,35,39.70
2010,04,02,09,36,34.50
2010,04,02,09,37,39.40
2010,04,02,09,38,45.80
2010,04,02,09,39,32.20
2010,04,02,09,40,46.40
2010,04,02,09,41,42.90
2010,04,02,09,42,44.00
2010,04,02,09,43,48.90
2010,04,02,09,44,34.90
2010,04,02,09,45,30.20
2010,04,02,09,46,45.80
2010,04,02,09,47,41.10
2010,04,02,09,48,47.40
2010,04,02,09,49,35.30
2010,04,02,09,50,43.50
2010,04,02,09,51,35.80
2010,04,02,09,52,40.40
2010,04,02,09,53,48.70
2010,04,02,09,54,48.90
2010,04,02,09,55,50.00
2010,04,02,09,56,37.60
2010,04,02,09,57,41.00
2010,04,02,09,58,44.80
2010,04,02,09,59,35.30
2010,04,02,10,00,45.20
2010,04,02,10,01,28.50
2010,04,02,10,02,37.70
2010,04,02,10,03,38.70
2010,04,02,10,04,46.10
2010,04,02,10,05,47.10
2010,04,02,10,06,44.40
2010,04,02,10,07,39.20
2010,04,02,10,08,47.40
2010,04,02,10,09,36.70
2010,04,02,10,10,55.10
2010,04,02,10,11,44.30
2010,04,02,10,12,40.70
2010,04,02,10,13,47.20
2010,04,02,10,14,39.70
2010,04,02,10,15,51.20
2010,04,02,10,16,45.30
2010,04,02,10,17,39.40
2010,04,02,10,18,45.80
2010,04,02,10,19,45.80
2010,04,02,10,20,54.00
2010,04,02,10,21,53.40
2010,04,02,10,22,53.90
2010,04,02,10,23,43.70
2010,04,02,10,24,50.10
2010,04,02,10,25,45.90
2010,04,02,10,26,45.80
2010,04,02,10,27,50.90
2010,04,02,10,28,56.00
2010,04,02,10,29,50.80
2010,04,02,10,30,51.70
2010,04,02,10,31,50.70
2010,04,02,10,32,54.30
2010,04,02,10,33,57.90
2010,04,02,10,34,37.70
2010,04,02,10,35,41.20
2010,04,02,10,36,48.30
2010,04,02,10,37,43.70
2010,04,02,10,38,41.10
2010,04,02,10,39,50.80
2010,04,02,10,40,52.40
2010,04,02,10,41,50.00
2010,04,02,10,42,45.30
2010,04,02,10,43,47.10
2010,04,02,10,44,53.80
2010,04,02,10,45,46.60
2010,04,02,10,46,54.40
2010,04,02,10,47,46.20
2010,04,02,10,48,41.70
2010,04,02,10,49,52.90
2010,04,02,10,50,55.10
2010,04,02,10,51,36.90
2010,04,02,10,52,38.90
2010,04,02,10,53,42.30
2010,04,02,10,54,40.40
2010,04,02,10,55,43.30
2010,04,02,10,56,50.00
2010,04,02,10,57,45.80
2010,04,02,10,58,53.10
2010,04,02,10,59,47.40
2010,04,02,11,00,56.20
2010,04,02,11,01,41.90
2010,04,02,11,02,59.30
2010,04,02,11,03,49.60
2010,04,02,11,04,35.80
2010,04,02,11,05,28.40
2010,04,02,11,06,40.30
2010,04,02,11,07,36.30
2010,04,02,11,08,28.00
2010,04,02,11,09,56.20
2010,04,02,11,10,46.50
2010,04,02,11,11,32.20
2010,04,02,11,12,37.90
2010,04,02,11,13,48.10
2010,04,02,11,14,46.40
2010,04,02,11,15,42.70
2010,04,02,11,16,50.90
2010,04,02,11,17,48.20
2010,04,02,11,18,48.50
2010,04,02,11,19,47.50
2010,04,02,11,20,38.40
2010,04,02,11,21,36.30
2010,04,02,11,22,47.90
2010,04,02,11,23,49.20
2010,04,02,11,24,49.50
2010,04,02,11,25,46.20
2010,04,02,11,26,33.10
2010,04,02,11,27,46.70
2010,04,02,11,28,40.80
2010,04,02,11,29,50.00
2010,04,02,11,30,51.30
2010,04,02,11,31,47.90
2010,04,02,11,32,44.60
2010,04,02,11,33,30.90
2010,04,02,11,34,50.00
2010,04,02,11,35,44.60
2010,04,02,11,36,46.40
2010,04,02,11,37,37.80
2010,04,02,11,38,46.10
2010,04,02,11,39,46.50
2010,04,02,11,40,46.90
2010,04,02,11,41,42.60
2010,04,02,11,42,41.40
2010,04,02,11,43,41.20
2010,04,02,11,44,59.70
2010,04,02,11,45,39.20
2010,04,02,11,46,39.10
2010,04,02,11,47,44.80
2010,04,02,11,48,48.80
2010,04,02,11,49,32.30
2010,04,02,11,50,55.60
2010,04,02,11,51,43.90
2010,04,02,11,52,49.90
2010,04,02,11,53,47.70
2010,04,02,11,54,36.80
2010,04,02,11,55,44.70
2010,04,02,11,56,35.10
2010,04,02,11,57,49.10
2010,04,02,11,58,46.10
2010,04,02,11,59,50.20
2010,04,02,12,00,49.80
2010,04,02,12,01,44.80
2010,04,02,12,02,43.60
2010,04,02,12,03,43.30
2010,04,02,12,04,43.80
2010,04,02,12,05,39.60
2010,04,02,12,06,44.20
2010,04,02,12,07,47.40
2010,04,02,12,08,32.70
2010,04,02,12,09,46.80
2010,04,02,12,10,39.70
2010,04,02,12,11,39.10
2010,04,02,12,12,27.80
2010,04,02,12,13,49.70
2010,04,02,12,14,44.20
2010,04,02,12,15,37.80
2010,04,02,12,16,35.80
2010,04,02,12,17,37.60
2010,04,02,12,18,28.40
2010,04,02,12,19,46.20
2010,04,02,12,20,34.50
2010,04,02,12,21,44.80
2010,04,02,12,22,44.50
2010,04,02,12,23,40.00
2010,04,02,12,24,38.60
2010,04,02,12,25,37.00
2010,04,02,12,26,28.20
2010,04,02,12,27,39.60
2010,04,02,12,28,30.00
2010,04,02,12,29,31.10
2010,04,02,12,30,34.00
2010,04,02,12,31,43.80
2010,04,02,12,32,38.10
2010,04,02,12,33,39.40
2010,04,02,12,34,37.10
2010,04,02,12,35,29.90
2010,04,02,12,36,33.30
2010,04,02,12,37,37.70
2010,04,02,12,38,38.30
2010,04,02,12,39,43.20
2010,04,02,12,40,42.00
2010,04,02,12,41,40.20
2010,04,02,12,42,36.90
2010,04,02,12,43,40.20
2010,04,02,12,44,41.80
2010,04,02,12,45,43.60
2010,04,02,12,46,37.10
2010,04,02,12,47,33.50
2010,04,02,12,48,33.10
2010,04,02,12,49,38.00
2010,04,02,12,50,35.70
2010,04,02,12,51,33.00
2010,04,02,12,52,34.60
2010,04,02,12,53,38.60
2010,04,02,12,54,31.30
2010,04,02,12,55,34.00
2010,04,02,12,56,30.00
2010,04,02,12,57,46.10
2010,04,02,12,58,36.60
2010,04,02,12,59,33.70
2010,04,02,13,00,33.00
2010,04,02,13,01,41.60
2010,04,02,13,02,41.60
2010,04,02,13,03,36.10
2010,04,02,13,04,36.20
2010,04,02,13,05,38.70
2010,04,02,13,06,31.10
2010,04,02,13,07,38.00
2010,04,02,13,08,35.00
2010,04,02,13,09,30.30
2010,04,02,13,10,41.30
2010,04,02,13,11,31.10
2010,04,02,13,12,32.20
2010,04,02,13,13,30.70
2010,04,02,13,14,44.30
2010,04,02,13,15,41.20
2010,04,02,13,16,43.30
2010,04,02,13,17,39.90
2010,04,02,13,18,34.40
2010,04,02,13,19,35.50
2010,04,02,13,20,39.10
2010,04,02,13,21,37.40
2010,04,02,13,22,44.00
2010,04,02,13,23,43.70
2010,04,02,13,24,36.20
2010,04,02,13,25,34.20
2010,04,02,13,26,37.30
2010,04,02,13,27,35.70
2010,04,02,13,28,33.90
2010,04,02,13,29,33.40
2010,04,02,13,30,32.50
2010,04,02,13,31,26.20
2010,04,02,13,32,42.90
2010,04,02,13,33,34.70
2010,04,02,13,34,31.90
2010,04,02,13,35,36.00
2010,04,02,13,36,27.10
2010,04,02,13,37,30.70
2010,04,02,13,38,35.90
2010,04,02,13,39,26.80
2010,04,02,13,40,26.10
2010,04,02,13,41,35.70
2010,04,02,13,42,31.20
2010,04,02,13,43,32.70
2010,04,02,13,44,34.80
2010,04,02,13,45,31.50
2010,04,02,13,46,26.00
2010,04,02,13,47,31.20
2010,04,02,13,48,31.80
2010,04,02,13,49,30.70
2010,04,02,13,50,34.20
2010,04,02,13,51,29.50
2010,04,02,13,52,29.80
2010,04,02,13,53,33.70
2010,04,02,13,54,30.90
2010,04,02,13,55,29.40
2010,04,02,13,56,30.90
2010,04,02,13,57,29.70
2010,04,02,13,58,26.40
2010,04,02,13,59,27.40
2010,04,02,14,00,32.30
2010,04,02,14,01,29.20
2010,04,02,14,02,25.60
2010,04,02,14,03,33.10
2010,04,02,14,04,31.90
2010,04,02,14,05,31.30
2010,04,02,14,06,32.90
2010,04,02,14,07,36.50
2010,04,02,14,08,32.80
2010,04,02,14,09,27.10
2010,04,02,14,10,27.40
2010,04,02,14,11,30.90
2010,04,02,14,12,28.30
2010,04,02,14,13,32.30
2010,04,02,14,14,32.80
2010,04,02,14,15,29.90
2010,04,02,14,16,28.80
2010,04,02,14,17,26.90
2010,04,02,14,18,30.60
2010,04,02,14,19,38.30
2010,04,02,14,20,33.40
2010,04,02,14,21,25.30
2010,04,02,14,22,23.90
2010,04,02,14,23,27.20
2010,04,02,14,24,22.60
2010,04,02,14,25,24.90
2010,04,02,14,26,30.60
2010,04,02,14,27,26.50
2010,04,02,14,28,20.90
2010,04,02,14,29,18.80
2010,04,02,14,30,18.80
2010,04,02,14,31,25.40
2010,04,02,14,32,23.30
2010,04,02,14,33,25.20
2010,04,02,14,34,26.10
2010,04,02,14,35,31.70
2010,04,02,14,36,33.70
2010,04,02,14,37,25.50
2010,04,02,14,38,26.30
2010,04,02,14,39,21.20
2010,04,02,14,40,13.20
2010,04,02,14,41,21.70
2010,04,02,14,42,23.90
2010,04,02,14,43,34.10
2010,04,02,14,44,32.60
2010,04,02,14,45,27.80
2010,04,02,14,46,27.80
2010,04,02,14,47,22.90
2010,04,02,14,48,22.00
2010,04,02,14,49,21.50
2010,04,02,14,50,23.90
2010,04,02,14,51,24.20
2010,04,02,14,52,20.20
2010,04,02,14,53,26.00
2010,04,02,14,54,30.20
2010,04,02,14,55,25.20
2010,04,02,14,56,26.00
2010,04,02,14,57,20.90
2010,04,02,14,58,28.50
2010,04,02,14,59,22.60
2010,04,02,15,00,29.40
2010,04,02,15,01,33.30
2010,04,02,15,02,29.30
2010,04,02,15,03,25.40
2010,04,02,15,04,22.00
2010,04,02,15,05,29.40
2010,04,02,15,06,27.20
2010,04,02,15,07,26.90
2010,04,02,15,08,23.00
2010,04,02,15,09,24.40
2010,04,02,15,10,24.10
2010,04,02,15,11,24.00
2010,04,02,15,12,22.50
2010,04,02,15,13,26.50
2010,04,02,15,14,22.90
2010,04,02,15,15,26.60
2010,04,02,15,16,20.40
2010,04,02,15,17,18.90
2010,04,02,15,18,18.00
2010,04,02,15,19,20.20
2010,04,02,15,20,14.50
2010,04,02,15,21,21.00
2010,04,02,15,22,22.10
2010,04,02,15,23,20.00
2010,04,02,15,24,23.30
2010,04,02,15,25,19.80
2010,04,02,15,26,22.50
2010,04,02,15,27,25.60
2010,04,02,15,28,24.00
2010,04,02,15,29,21.40
2010,04,02,15,30,22.80
2010,04,02,15,31,23.00
2010,04,02,15,32,23.70
2010,04,02,15,33,19.30
2010,04,02,15,34,16.70
2010,04,02,15,35,16.90
2010,04,02,15,36,19.20
2010,04,02,15,37,17.50
2010,04,02,15,38,11.60
2010,04,02,15,39,19.10
2010,04,02,15,40,18.90
2010,04,02,15,41,24.10
2010,04,02,15,42,19.70
2010,04,02,15,43,19.30
2010,04,02,15,44,14.10
2010,04,02,15,45,12.90
2010,04,02,15,46,7.80
2010,04,02,15,47,18.90
2010,04,02,15,48,22.40
2010,04,02,15,49,21.10
2010,04,02,15,50,12.60
2010,04,02,15,51,16.20
2010,04,02,15,52,15.40
2010,04,02,15,53,14.80
2010,04,02,15,54,16.20
2010,04,02,15,55,17.00
2010,04,02,15,56,11.40
2010,04,02,15,57,12.30
2010,04,02,15,58,10.00
2010,04,02,15,59,14.80
2010,04,02,16,00,15.40
2010,04,02,16,01,15.00
2010,04,02,16,02,15.70
2010,04,02,16,03,15.60
2010,04,02,16,04,13.90
2010,04,02,16,05,23.30
2010,04,02,16,06,15.70
2010,04,02,16,07,16.50
2010,04,02,16,08,16.40
2010,04,02,16,09,15.50
2010,04,02,16,10,16.80
2010,04,02,16,11,16.00
2010,04,02,16,12,8.10
2010,04,02,16,13,10.70
2010,04,02,16,14,13.10
2010,04,02,16,15,10.60
2010,04,02,16,16,19.10
2010,04,02,16,17,13.80
2010,04,02,16,18,14.10
2010,04,02,16,19,18.50
2010,04,02,16,20,20.60
2010,04,02,16,21,10.60
2010,04,02,16,22,18.20
2010,04,02,16,23,13.30
2010,04,02,16,24,14.70
2010,04,02,16,25,16.50
2010,04,02,16,26,23.00
2010,04,02,16,27,23.50
2010,04,02,16,28,13.60
2010,04,02,16,29,15.60
2010,04,02,16,30,16.10
2010,04,02,16,31,14.60
2010,04,02,16,32,19.10
2010,04,02,16,33,22.20
2010,04,02,16,34,25.50
2010,04,02,16,35,24.10
2010,04,02,16,36,21.80
2010,04,02,16,37,25.40
2010,04,02,16,38,22.50
2010,04,02,16,39,20.50
2010,04,02,16,40,23.70
2010,04,02,16,41,16.00
2010,04,02,16,42,24.80
2010,04,02,16,43,25.10
2010,04,02,16,44,17.70
2010,04,02,16,45,20.00
2010,04,02,16,46,28.70
2010,04,02,16,47,23.60
2010,04,02,16,48,23.00
2010,04,02,16,49,18.30
2010,04,02,16,50,28.10
2010,04,02,16,51,26.30
2010,04,02,16,52,16.70
2010,04,02,16,53,19.50
2010,04,02,16,54,14.60
2010,04,02,16,55,18.30
2010,04,02,16,56,16.70
2010,04,02,16,57,22.90
2010,04,02,16,58,23.30
2010,04,02,16,59,22.40
2010,04,02,17,00,17.60
2010,04,02,17,01,13.10
2010,04,02,17,02,19.50
2010,04,02,17,03,20.80
2010,04,02,17,04,19.50
2010,04,02,17,05,17.80
2010,04,02,17,06,15.00
2010,04,02,17,07,16.10
2010,04,02,17,08,16.20
2010,04,02,17,09,14.10
2010,04,02,17,10,12.80
2010,04,02,17,11,9.40
2010,04,02,17,12,15.50
2010,04,02,17,13,9.70
2010,04,02,17,14,12.00
2010,04,02,17,15,12.80
2010,04,02,17,16,13.20
2010,04,02,17,17,13.20
2010,04,02,17,18,11.80
2010,04,02,17,19,11.80
2010,04,02,17,20,13.60
2010,04,02,17,21,11.30